SCP
0 0 0 0 -0 0 0 0 0 0 0 0 0 0 0 0 0 0 0 0 0 0 0 0 0 0 0 0 0 0 0 0 0 0 0 0 0 0 0 0 0 0 0 0
0 0 0 0 0 0 0 0 0 0 0 0 0 0 0 0 0 0 0 0 0 0 0 0 0 0 0 0 0 0 0 0 0 0 0 0 0 0 0 0 0 0 0 0
0 0 0 0 0 0 0 0 0 0 0 0 0 0 0 0 0 0 0 0 0 0 0 0 0 0 0 0 0 0 0 0 0 0 0 0 0 0 0 0 0 0 0 0
0 0 0 0 0 0 0 0 0 0 0 0 0 0 0 0 0 0 0 0 0 0 0 0 0 0 0 0 0 0 0 0 0 0 0 0 0 0 0 0 0 0 0 0
0 0 0 0 0 0 0 0 0 -0 -0 -0 0 0 0 0 0 0 0 0 0 0 0 0 0 0 0 0 0 0 0 0 0 0 0 0 0 0 0 0 0 0 0 0
0 0 0 0 0 0 0 0 0 0 -0 -0 -0 0 0 0 0 0 0 0 0 0 0 0 0 0 0 0 0 0 0 0 0 0 0 0 0 0 0 0 0 0 0 0
0 0 0 0 0 0 0 0 0 0 0 0 0 0 0 0 0 0 0 0 0 0 0 0 0 0 0 0 0 0 0 0 0 0 0 0 0 0 0 0 0 0 0 0
0 0 0 0 0 0 0 0 0 0 0 -0 0 -0 -0 0 0 0 0 0 0 0 0 0 0 0 0 0 0 0 0 0 0 0 0 0 0 0 0 0 0 0 0 0
0 0 0 0 0 0 0 0 0 0 0 -0 -0 -0 -0 0 0 0 0 0 0 0 0 0 0 0 0 0 0 0 0 0 0 0 0 0 0 0 0 0 0 0 0 0
0 0 0 0 -0 -0 -0 -0 -0 -0 0 0 -0 0 0 0 0 0 0 0 0 0 0 0 0 0 0 0 0 0 0 0 0 0 0 0 0 0 0 0 0 0 0 0
0 0 0 -0 -0 -0 -0 -0 -0 0 0 0 0 -0 -0 0 0 0 0 0 0 0 0 0 0 0 0 0 0 0 0 0 0 0 0 0 0 0 0 0 -0 -0 0 0
0 0 0 0 0 0 -0 -0 0 0 0 0 0 -0 -0 0 0 0 0 0 0 0 0 0 0 0 0 0 0 0 0 0 0 0 0 0 0 0 0 0 0 0 0 -0
0 0 -0 0 0 0 0 0 0 0 0 -0 -0 0 0 0 0 0 0 0 0 0 0 0 0 0 0 0 0 0 0 0 0 0 0 0 0 0 0 0 0 0 -0 -0
0 0 -0 0 0 0 0 0 0 -0 -0 -0 0 0 0 0 0 0 0 0 0 0 0 0 0 0 0 0 0 0 0 0 0 0 0 0 0 0 0 0 0 0 0 0
0 0 0 0 0 0 0 0 -0 -0 0 0 0 0 0 0 0 0 0 0 0 0 0 0 0 0 0 0 0 0 0 0 0 0 0 0 0 0 0 0 0 0 0 0
-0 0 0 0 0 0 0 0 0 0 0 0 0 0 0 0 0 0 0 0 0 0 0 0 0 0 0 0 0 0 0 0 0 0 0 0 0 0 0 0 0 0 0 0
-0 0 -0 0 0 0 0 0 0 0 0 0 0 0 0 0 0 0 0 0 0 0 0 0 0 0 0 0 0 0 0 0 0 0 0 0 0 0 0 0 0 0 0 0
-0 -0 -0 -0 -0 0 0 0 0 0 0 0 0 0 0 0 0 0 0 0 0 0 0 0 0 0 0 0 0 0 0 0 0 0 0 0 0 0 0 0 0 0 0 0
0 0 -0 -0 -0 0 0 0 0 0 0 0 0 0 0 0 0 0 0 0 0 0 0 0 0 0 0 0 0 0 0 0 0 0 0 0 0 0 0 0 0 0 0 0
-0 -0 -0 -0 0 0 0 0 0 0 0 0 0 0 0 0 0 0 0 0 0 0 0 0 0 0 0 0 0 -0 0 0 0 0 0 0 0 0 0 0 0 0 0 0
-0 -0 -0 0 0 0 0 0 0 0 0 0 0 0 0 0 0 0 0 0 0 0 0 0 0 0 0 0 0 0 0 0 0 0 0 0 0 0 0 0 0 0 0 0
-0 -0 0 0 0 0 0 0 0 0 0 0 0 0 0 0 0 0 0 0 0 0 0 0 0 0 0 -0 0 0 0 0 0 0 0 0 0 0 0 0 0 0 0 0
0 0 0 0 0 0 0 0 0 0 0 0 0 0 0 0 0 0 0 0 0 0 0 0 0 0 0 0 0 0 0 0 0 0 0 0 0 0 0 0 0 0 0 0
0 0 0 0 0 0 0 0 0 0 0 0 0 0 0 0 0 0 0 0 0 0 0 0 0 0 -0 0 0 0 0 0 0 0 0 0 -0 -0 -0 -0 0 0 0 0
0 0 -0 -0 -0 -0 -0 -0 -0 0 0 -0 -0 0 -0 -0 -0 -0 -0 0 0 0 -0 -0 -0 0 0 0 0 0 0 0 0 -0 -0 -0 -0 -0 -0 0 0 0 -0 0
-0 0 -0 -0 0 0 -0 -0 0 0 -0 -0 -0 -0 -0 0 -0 -0 -0 -0 0 0 0 0 0 0 0 0 0 0 0 0 0 0 0 0 0 -0 -0 -0 0 0 0 0
-0 -0 -0 -0 0 0 0 0 0 0 0 0 0 0 -0 -0 0 0 0 0 0 0 0 0 0 0 0 0 0 0 0 0 0 0 0 -0 -0 -0 -0 -0 -0 -0 -0 0
Wind_Speed_500mb
13 46 42 29 49 49 26 17 9 30 44 35 34 38 47 55 55 54 53 49 44 42 39 38 35 31 26 21 14 10 6 7 11 16 21 24 28 29 31 30 30 30 30 30
23 52 40 33 34 40 29 22 26 41 32 31 44 54 53 58 57 52 47 44 41 38 34 33 28 21 16 12 10 10 13 17 20 23 24 25 25 26 23 23 24 25 28 29
9 44 38 21 25 22 14 7 41 33 28 46 39 39 49 56 54 51 44 40 35 34 30 25 17 13 10 11 13 16 18 20 20 18 19 20 20 15 15 16 21 25 24 27
10 39 15 10 8 22 23 16 10 40 49 42 50 52 42 41 54 46 41 36 33 26 21 14 9 8 11 14 15 17 18 18 17 14 14 14 8 10 11 13 20 23 27 29
8 9 17 17 21 15 15 15 31 55 48 66 72 67 45 33 39 42 38 33 24 19 9 6 8 10 11 12 13 14 16 17 13 12 11 6 7 8 8 13 18 27 28 26
10 9 13 12 14 19 14 10 21 41 50 57 66 27 13 29 38 40 33 25 16 8 5 9 9 10 12 13 11 12 15 19 15 9 5 6 6 6 7 10 15 28 26 22
12 8 11 16 27 28 11 16 46 54 56 57 15 27 53 39 35 31 23 15 11 6 6 6 11 12 11 11 12 11 10 11 10 8 5 6 3 4 5 10 16 25 23 18
4 7 8 43 21 6 22 62 61 54 45 61 69 65 50 39 35 26 19 13 11 11 14 15 13 11 11 11 11 13 10 10 9 6 2 8 1 3 6 12 16 24 27 19
10 6 12 22 29 41 50 71 55 60 54 78 69 58 49 41 33 26 20 17 17 17 16 17 17 17 17 18 16 13 10 8 6 3 0 9 1 3 6 10 15 23 30 30
6 17 19 30 45 51 54 71 67 68 64 67 78 57 49 39 32 27 23 22 18 18 19 20 18 20 21 21 21 17 14 11 6 1 2 7 4 5 6 11 19 25 28 33
16 18 39 49 48 55 68 77 79 73 67 66 58 51 46 39 32 27 24 23 22 23 23 22 21 21 22 22 22 21 19 14 7 1 4 7 8 5 9 14 20 27 32 34
7 26 38 29 48 52 85 78 66 74 60 45 47 51 43 39 32 30 28 25 25 24 23 22 21 21 23 24 25 24 20 16 10 2 5 8 8 8 9 15 20 24 29 31
19 60 65 60 60 61 74 63 56 59 55 55 48 48 43 40 34 32 29 26 25 24 21 20 21 21 23 24 25 25 24 18 14 7 0 6 6 8 9 12 16 21 27 30
58 51 50 37 53 52 56 56 56 56 50 46 44 37 36 37 31 28 27 25 24 22 20 20 21 22 23 23 22 23 22 22 19 14 8 2 1 3 5 6 6 9 14 15
49 55 60 54 52 48 45 47 51 48 42 39 34 34 32 33 33 31 26 23 23 24 23 21 21 22 21 19 19 21 19 20 19 18 16 12 9 8 8 7 6 7 5 7
47 48 46 47 42 38 38 38 44 39 35 34 31 29 30 30 30 29 27 26 25 28 26 24 23 19 18 19 19 19 20 18 16 17 17 17 16 15 14 15 16 18 19 20
43 36 35 37 35 33 34 33 34 32 31 28 28 28 28 29 30 30 29 29 28 26 25 23 23 21 23 21 19 19 18 18 19 20 20 21 19 19 18 19 20 23 26 27
42 38 33 32 32 32 30 29 28 27 27 26 28 29 29 29 32 31 31 27 26 26 26 26 26 25 26 26 23 21 19 18 19 22 21 22 21 22 22 22 23 23 25 25
36 36 32 31 27 27 26 25 24 25 26 26 29 30 30 31 31 29 23 21 26 31 33 29 27 28 29 28 25 23 26 25 26 28 27 27 26 25 24 24 24 25 26 26
32 29 26 27 25 21 23 21 21 24 26 28 29 31 34 32 29 27 24 30 33 32 28 28 28 28 28 27 27 27 31 31 32 33 32 30 28 26 27 29 28 27 27 27
28 25 25 23 23 23 21 22 22 24 27 29 29 31 31 31 29 23 21 23 29 29 27 28 28 30 29 28 28 29 30 30 31 32 33 32 31 31 32 32 31 29 28 29
25 24 24 22 21 23 22 21 22 23 26 31 29 30 29 29 27 27 28 26 27 26 26 30 29 30 29 28 29 31 30 30 31 32 32 32 32 32 31 30 30 30 31 32
25 23 24 25 25 24 25 24 21 24 24 29 27 27 24 24 24 20 21 23 22 23 24 27 28 25 24 27 29 29 28 28 29 29 29 29 30 30 30 30 28 27 28 29
26 25 26 28 25 27 27 24 21 23 25 26 26 23 19 19 18 18 19 20 20 20 19 22 22 21 22 23 24 25 25 26 27 27 27 28 28 28 28 29 28 29 28 29
25 24 23 24 24 24 25 25 24 23 24 25 25 21 16 13 13 13 13 14 15 15 16 16 16 17 18 19 20 22 23 24 24 25 25 26 27 27 28 29 29 30 30 32
20 20 20 19 19 20 21 22 19 20 20 20 19 16 12 11 13 12 10 10 12 12 13 13 13 14 15 16 16 18 20 22 23 24 26 28 29 31 32 32 34 35 36 36
22 19 18 17 16 15 13 16 15 18 20 19 18 17 15 14 14 13 11 11 13 15 16 17 16 16 16 16 16 17 19 22 24 25 28 30 32 33 35 37 38 38 39 40
Wind_Direction_500mb
231 143 161 164 179 181 181 152 175 151 154 158 147 140 137 128 125 121 113 109 105 103 103 104 103 100 96 94 93 86 50 358 326 317 314 318 324 326 331 332 334 337 335 338
141 152 172 169 173 189 186 94 95 136 124 138 126 130 136 134 131 122 118 115 111 111 110 108 103 97 86 69 43 18 350 331 324 320 316 319 328 333 340 343 347 344 343 341
103 155 152 177 169 144 125 123 144 146 150 131 136 139 143 139 131 128 126 120 117 118 115 109 100 76 44 13 350 337 325 317 313 317 323 332 341 358 4 9 359 355 346 338
108 122 142 135 26 141 121 123 133 117 139 136 130 124 125 133 132 128 125 125 121 115 105 90 59 14 351 339 329 325 322 319 316 321 332 343 26 38 46 26 10 4 348 339
105 101 121 99 118 137 154 58 143 128 124 123 121 107 78 105 120 123 125 125 118 109 93 46 7 350 340 340 341 338 336 330 317 324 338 60 71 74 45 33 11 4 355 349
139 94 141 46 100 35 131 105 124 134 137 140 146 143 133 124 127 128 130 124 114 99 30 6 1 9 8 3 4 8 5 356 328 335 4 99 77 51 31 21 2 3 359 360
92 89 87 11 326 318 203 157 149 145 143 146 130 122 136 130 122 125 119 110 98 66 38 28 38 37 31 33 25 14 356 345 335 334 20 134 75 3 13 1 360 2 4 359
76 106 131 350 322 282 117 125 137 135 124 112 118 122 124 122 121 119 109 96 96 92 74 62 57 56 45 34 15 4 360 352 328 317 345 162 146 330 356 342 358 8 14 28
26 79 16 17 75 100 122 116 120 116 121 126 124 121 123 119 116 109 105 101 86 81 74 70 59 53 41 27 18 12 8 349 325 313 170 165 186 332 342 332 354 6 8 17
126 28 50 66 80 87 104 109 115 117 122 129 125 125 117 113 108 103 97 92 90 83 76 69 62 48 38 29 24 19 12 3 345 206 142 176 177 288 324 332 340 351 1 7
90 112 75 51 76 100 106 113 116 120 122 117 119 114 115 109 105 102 97 91 91 85 78 67 56 45 37 30 23 19 14 9 3 240 180 179 227 239 304 320 325 328 345 354
86 85 102 81 91 99 106 110 116 118 112 109 112 110 111 107 105 100 95 89 84 78 72 62 52 42 34 28 23 24 27 24 16 342 192 193 215 235 267 298 314 317 324 329
92 98 99 100 101 102 107 107 107 108 109 110 105 107 106 104 100 96 91 83 76 71 66 57 47 38 34 30 24 26 31 32 26 18 28 197 203 213 241 288 302 308 313 314
95 102 88 93 102 104 106 107 104 101 100 102 106 105 104 100 100 94 83 75 70 65 62 54 47 40 36 33 26 31 32 37 40 43 53 66 215 227 225 239 267 309 312 324
92 101 106 108 107 104 103 104 99 97 101 101 100 101 102 100 91 83 77 71 64 60 61 57 51 45 42 42 36 38 40 44 44 52 60 69 79 85 84 73 48 25 350 318
103 100 104 103 104 102 101 100 100 100 98 97 98 98 95 91 88 81 76 72 66 59 58 54 50 42 44 46 46 44 38 48 55 64 70 73 74 73 68 57 48 41 40 35
101 100 105 102 103 101 96 96 99 104 106 105 102 101 99 97 95 86 77 67 62 60 59 58 54 51 54 52 48 50 53 48 60 64 64 64 60 60 57 49 44 37 36 31
97 97 98 100 106 106 104 102 103 106 105 104 102 105 104 104 96 89 80 74 70 66 61 57 55 54 58 56 53 54 56 54 58 61 60 61 56 51 46 42 39 35 31 27
98 95 93 96 104 111 110 107 107 109 108 110 110 107 106 103 101 96 90 82 74 65 57 57 56 60 62 61 61 59 63 63 62 62 58 56 53 49 50 43 40 36 30 25
94 85 88 97 103 103 108 107 109 111 112 120 118 113 112 104 99 97 93 78 67 61 57 62 63 62 60 62 65 65 63 61 62 60 59 59 55 47 43 45 43 34 28 26
101 95 91 93 98 101 100 100 105 113 120 123 118 113 111 103 96 90 89 83 70 62 62 66 68 68 65 64 64 64 64 62 60 58 55 50 46 43 40 39 37 32 26 23
109 97 91 88 93 99 97 102 110 115 124 131 120 110 106 103 96 89 84 79 71 63 66 66 62 61 57 61 62 62 60 59 57 55 53 49 45 41 38 33 30 26 22 19
117 107 96 94 94 96 100 96 104 108 128 128 122 112 104 100 93 86 81 73 65 61 57 58 58 58 56 57 55 53 53 52 51 48 45 43 40 36 34 31 28 22 21 18
128 120 113 101 97 100 98 103 108 117 128 125 124 116 105 96 95 88 79 72 60 51 46 46 47 45 49 48 48 46 45 43 40 36 32 29 26 23 20 18 15 12 10 7
135 119 113 112 107 105 96 96 101 113 127 132 130 125 114 105 109 104 83 63 48 36 30 35 37 41 44 43 45 45 41 36 29 25 21 19 16 14 11 8 5 1 359 358
143 131 134 133 124 111 105 98 103 108 124 137 139 132 124 119 118 106 84 53 35 34 39 39 42 43 43 42 42 35 30 25 21 17 14 12 10 8 6 4 1 358 356 354
166 161 162 166 168 159 134 116 104 116 119 120 123 119 112 111 120 112 93 68 62 63 58 53 50 47 42 39 36 31 24 19 15 12 9 6 3 1 359 357 355 353 350 346
Wind_Speed_850mb
13 46 42 29 49 49 26 17 9 30 44 35 34 38 47 55 55 54 53 49 44 42 39 38 35 31 26 21 14 10 6 7 11 16 21 24 28 29 31 30 30 30 30 30
23 52 40 33 34 40 29 22 26 41 32 31 44 54 53 58 57 52 47 44 41 38 34 33 28 21 16 12 10 10 13 17 20 23 24 25 25 26 23 23 24 25 28 29
9 44 38 21 25 22 14 7 41 33 28 46 39 39 49 56 54 51 44 40 35 34 30 25 17 13 10 11 13 16 18 20 20 18 19 20 20 15 15 16 21 25 24 27
10 39 15 10 8 22 23 16 10 40 49 42 50 52 42 41 54 46 41 36 33 26 21 14 9 8 11 14 15 17 18 18 17 14 14 14 8 10 11 13 20 23 27 29
8 9 17 17 21 15 15 15 31 55 48 66 72 67 45 33 39 42 38 33 24 19 9 6 8 10 11 12 13 14 16 17 13 12 11 6 7 8 8 13 18 27 28 26
10 9 13 12 14 19 14 10 21 41 50 57 66 27 13 29 38 40 33 25 16 8 5 9 9 10 12 13 11 12 15 19 15 9 5 6 6 6 7 10 15 28 26 22
12 8 11 16 27 28 11 16 46 54 56 57 15 27 53 39 35 31 23 15 11 6 6 6 11 12 11 11 12 11 10 11 10 8 5 6 3 4 5 10 16 25 23 18
4 7 8 43 21 6 22 62 61 54 45 61 69 65 50 39 35 26 19 13 11 11 14 15 13 11 11 11 11 13 10 10 9 6 2 8 1 3 6 12 16 24 27 19
10 6 12 22 29 41 50 71 55 60 54 78 69 58 49 41 33 26 20 17 17 17 16 17 17 17 17 18 16 13 10 8 6 3 0 9 1 3 6 10 15 23 30 30
6 17 19 30 45 51 54 71 67 68 64 67 78 57 49 39 32 27 23 22 18 18 19 20 18 20 21 21 21 17 14 11 6 1 2 7 4 5 6 11 19 25 28 33
16 18 39 49 48 55 68 77 79 73 67 66 58 51 46 39 32 27 24 23 22 23 23 22 21 21 22 22 22 21 19 14 7 1 4 7 8 5 9 14 20 27 32 34
7 26 38 29 48 52 85 78 66 74 60 45 47 51 43 39 32 30 28 25 25 24 23 22 21 21 23 24 25 24 20 16 10 2 5 8 8 8 9 15 20 24 29 31
19 60 65 60 60 61 74 63 56 59 55 55 48 48 43 40 34 32 29 26 25 24 21 20 21 21 23 24 25 25 24 18 14 7 0 6 6 8 9 12 16 21 27 30
58 51 50 37 53 52 56 56 56 56 50 46 44 37 36 37 31 28 27 25 24 22 20 20 21 22 23 23 22 23 22 22 19 14 8 2 1 3 5 6 6 9 14 15
49 55 60 54 52 48 45 47 51 48 42 39 34 34 32 33 33 31 26 23 23 24 23 21 21 22 21 19 19 21 19 20 19 18 16 12 9 8 8 7 6 7 5 7
47 48 46 47 42 38 38 38 44 39 35 34 31 29 30 30 30 29 27 26 25 28 26 24 23 19 18 19 19 19 20 18 16 17 17 17 16 15 14 15 16 18 19 20
43 36 35 37 35 33 34 33 34 32 31 28 28 28 28 29 30 30 29 29 28 26 25 23 23 21 23 21 19 19 18 18 19 20 20 21 19 19 18 19 20 23 26 27
42 38 33 32 32 32 30 29 28 27 27 26 28 29 29 29 32 31 31 27 26 26 26 26 26 25 26 26 23 21 19 18 19 22 21 22 21 22 22 22 23 23 25 25
36 36 32 31 27 27 26 25 24 25 26 26 29 30 30 31 31 29 23 21 26 31 33 29 27 28 29 28 25 23 26 25 26 28 27 27 26 25 24 24 24 25 26 26
32 29 26 27 25 21 23 21 21 24 26 28 29 31 34 32 29 27 24 30 33 32 28 28 28 28 28 27 27 27 31 31 32 33 32 30 28 26 27 29 28 27 27 27
28 25 25 23 23 23 21 22 22 24 27 29 29 31 31 31 29 23 21 23 29 29 27 28 28 30 29 28 28 29 30 30 31 32 33 32 31 31 32 32 31 29 28 29
25 24 24 22 21 23 22 21 22 23 26 31 29 30 29 29 27 27 28 26 27 26 26 30 29 30 29 28 29 31 30 30 31 32 32 32 32 32 31 30 30 30 31 32
25 23 24 25 25 24 25 24 21 24 24 29 27 27 24 24 24 20 21 23 22 23 24 27 28 25 24 27 29 29 28 28 29 29 29 29 30 30 30 30 28 27 28 29
26 25 26 28 25 27 27 24 21 23 25 26 26 23 19 19 18 18 19 20 20 20 19 22 22 21 22 23 24 25 25 26 27 27 27 28 28 28 28 29 28 29 28 29
25 24 23 24 24 24 25 25 24 23 24 25 25 21 16 13 13 13 13 14 15 15 16 16 16 17 18 19 20 22 23 24 24 25 25 26 27 27 28 29 29 30 30 32
20 20 20 19 19 20 21 22 19 20 20 20 19 16 12 11 13 12 10 10 12 12 13 13 13 14 15 16 16 18 20 22 23 24 26 28 29 31 32 32 34 35 36 36
22 19 18 17 16 15 13 16 15 18 20 19 18 17 15 14 14 13 11 11 13 15 16 17 16 16 16 16 16 17 19 22 24 25 28 30 32 33 35 37 38 38 39 40
Wind_Direction_850mb
231 143 161 164 179 181 181 152 175 151 154 158 147 140 137 128 125 121 113 109 105 103 103 104 103 100 96 94 93 86 50 358 326 317 314 318 324 326 331 332 334 337 335 338
141 152 172 169 173 189 186 94 95 136 124 138 126 130 136 134 131 122 118 115 111 111 110 108 103 97 86 69 43 18 350 331 324 320 316 319 328 333 340 343 347 344 343 341
103 155 152 177 169 144 125 123 144 146 150 131 136 139 143 139 131 128 126 120 117 118 115 109 100 76 44 13 350 337 325 317 313 317 323 332 341 358 4 9 359 355 346 338
108 122 142 135 26 141 121 123 133 117 139 136 130 124 125 133 132 128 125 125 121 115 105 90 59 14 351 339 329 325 322 319 316 321 332 343 26 38 46 26 10 4 348 339
105 101 121 99 118 137 154 58 143 128 124 123 121 107 78 105 120 123 125 125 118 109 93 46 7 350 340 340 341 338 336 330 317 324 338 60 71 74 45 33 11 4 355 349
139 94 141 46 100 35 131 105 124 134 137 140 146 143 133 124 127 128 130 124 114 99 30 6 1 9 8 3 4 8 5 356 328 335 4 99 77 51 31 21 2 3 359 360
92 89 87 11 326 318 203 157 149 145 143 146 130 122 136 130 122 125 119 110 98 66 38 28 38 37 31 33 25 14 356 345 335 334 20 134 75 3 13 1 360 2 4 359
76 106 131 350 322 282 117 125 137 135 124 112 118 122 124 122 121 119 109 96 96 92 74 62 57 56 45 34 15 4 360 352 328 317 345 162 146 330 356 342 358 8 14 28
26 79 16 17 75 100 122 116 120 116 121 126 124 121 123 119 116 109 105 101 86 81 74 70 59 53 41 27 18 12 8 349 325 313 170 165 186 332 342 332 354 6 8 17
126 28 50 66 80 87 104 109 115 117 122 129 125 125 117 113 108 103 97 92 90 83 76 69 62 48 38 29 24 19 12 3 345 206 142 176 177 288 324 332 340 351 1 7
90 112 75 51 76 100 106 113 116 120 122 117 119 114 115 109 105 102 97 91 91 85 78 67 56 45 37 30 23 19 14 9 3 240 180 179 227 239 304 320 325 328 345 354
86 85 102 81 91 99 106 110 116 118 112 109 112 110 111 107 105 100 95 89 84 78 72 62 52 42 34 28 23 24 27 24 16 342 192 193 215 235 267 298 314 317 324 329
92 98 99 100 101 102 107 107 107 108 109 110 105 107 106 104 100 96 91 83 76 71 66 57 47 38 34 30 24 26 31 32 26 18 28 197 203 213 241 288 302 308 313 314
95 102 88 93 102 104 106 107 104 101 100 102 106 105 104 100 100 94 83 75 70 65 62 54 47 40 36 33 26 31 32 37 40 43 53 66 215 227 225 239 267 309 312 324
92 101 106 108 107 104 103 104 99 97 101 101 100 101 102 100 91 83 77 71 64 60 61 57 51 45 42 42 36 38 40 44 44 52 60 69 79 85 84 73 48 25 350 318
103 100 104 103 104 102 101 100 100 100 98 97 98 98 95 91 88 81 76 72 66 59 58 54 50 42 44 46 46 44 38 48 55 64 70 73 74 73 68 57 48 41 40 35
101 100 105 102 103 101 96 96 99 104 106 105 102 101 99 97 95 86 77 67 62 60 59 58 54 51 54 52 48 50 53 48 60 64 64 64 60 60 57 49 44 37 36 31
97 97 98 100 106 106 104 102 103 106 105 104 102 105 104 104 96 89 80 74 70 66 61 57 55 54 58 56 53 54 56 54 58 61 60 61 56 51 46 42 39 35 31 27
98 95 93 96 104 111 110 107 107 109 108 110 110 107 106 103 101 96 90 82 74 65 57 57 56 60 62 61 61 59 63 63 62 62 58 56 53 49 50 43 40 36 30 25
94 85 88 97 103 103 108 107 109 111 112 120 118 113 112 104 99 97 93 78 67 61 57 62 63 62 60 62 65 65 63 61 62 60 59 59 55 47 43 45 43 34 28 26
101 95 91 93 98 101 100 100 105 113 120 123 118 113 111 103 96 90 89 83 70 62 62 66 68 68 65 64 64 64 64 62 60 58 55 50 46 43 40 39 37 32 26 23
109 97 91 88 93 99 97 102 110 115 124 131 120 110 106 103 96 89 84 79 71 63 66 66 62 61 57 61 62 62 60 59 57 55 53 49 45 41 38 33 30 26 22 19
117 107 96 94 94 96 100 96 104 108 128 128 122 112 104 100 93 86 81 73 65 61 57 58 58 58 56 57 55 53 53 52 51 48 45 43 40 36 34 31 28 22 21 18
128 120 113 101 97 100 98 103 108 117 128 125 124 116 105 96 95 88 79 72 60 51 46 46 47 45 49 48 48 46 45 43 40 36 32 29 26 23 20 18 15 12 10 7
135 119 113 112 107 105 96 96 101 113 127 132 130 125 114 105 109 104 83 63 48 36 30 35 37 41 44 43 45 45 41 36 29 25 21 19 16 14 11 8 5 1 359 358
143 131 134 133 124 111 105 98 103 108 124 137 139 132 124 119 118 106 84 53 35 34 39 39 42 43 43 42 42 35 30 25 21 17 14 12 10 8 6 4 1 358 356 354
166 161 162 166 168 159 134 116 104 116 119 120 123 119 112 111 120 112 93 68 62 63 58 53 50 47 42 39 36 31 24 19 15 12 9 6 3 1 359 357 355 353 350 346